{"data":{"norad_id":46701,"epoch":"2026-05-31T13:07:58.472256Z","epoch_age_seconds":9694607,"freshness":"OLD","line1":"1 46701U 20073AH  26151.54720454  .10742885  12491-4  39665-3 0  9994","line2":"2 46701  53.0177 137.1315 0004338 281.3089  78.7472 16.44090342310915","mean_motion":16.44090342,"eccentricity":0.0004338,"inclination_deg":53.0177,"raan_deg":137.1315,"arg_perigee_deg":281.3089,"mean_anomaly_deg":78.7472,"bstar":0.00039665,"rev_number":31091,"period_min":87.586427777945,"perigee_km":152.11014644123,"apogee_km":157.7782476878,"semimajor_km":6533.0811970645,"source":"CELESTRAK","updated_at":"2026-06-01T09:00:37.424054Z"}}